AAL33 KDCA-KATL

Flight info

Callsign AAL33
Flight time 1h 28m
Altitude 36000
Route CLTCH3 FLASK OZZZI2
Aircraft A321/M-SDE3FGHIRWY/LB1

Departure

Time 2026-05-01 08:19
Airport Ronald Reagan Washington National Airport (KDCA)

Arrival

Time 2026-05-01 09:47
Airport Hartsfield Jackson Atlanta International Airport (KATL)
Time Latitude Longitude Altitude Speed Heading
2026-05-01 07:47 38.85167 -77.04051 24 ft 0 kts 317°
2026-05-01 08:07 38.85146 -77.04009 32 ft 4 kts 266°
2026-05-01 08:08 38.85150 -77.03983 29 ft 4 kts 211°
2026-05-01 08:08 38.85199 -77.03981 26 ft 3 kts 175°
2026-05-01 08:09 38.85204 -77.03982 26 ft 0 kts 175°
2026-05-01 08:12 38.85198 -77.03981 26 ft 2 kts 175°
2026-05-01 08:13 38.85178 -77.03979 26 ft 4 kts 175°
2026-05-01 08:13 38.85145 -77.03976 28 ft 6 kts 175°
2026-05-01 08:13 38.85041 -77.03965 24 ft 9 kts 175°
2026-05-01 08:14 38.84972 -77.03958 24 ft 11 kts 175°
2026-05-01 08:14 38.84891 -77.03950 24 ft 12 kts 175°
2026-05-01 08:14 38.84799 -77.03940 24 ft 14 kts 175°
2026-05-01 08:14 38.84715 -77.03991 24 ft 14 kts 207°
2026-05-01 08:15 38.84628 -77.04042 24 ft 12 kts 204°
2026-05-01 08:15 38.84523 -77.04015 25 ft 8 kts 169°
2026-05-01 08:15 38.84462 -77.04000 30 ft 9 kts 169°
2026-05-01 08:16 38.84398 -77.03983 26 ft 10 kts 169°
2026-05-01 08:16 38.84336 -77.03945 30 ft 11 kts 124°
2026-05-01 08:16 38.84285 -77.03854 27 ft 14 kts 149°
2026-05-01 08:16 38.84214 -77.03799 24 ft 9 kts 136°
2026-05-01 08:17 38.84176 -77.03731 24 ft 9 kts 117°
2026-05-01 08:17 38.84191 -77.03682 24 ft 6 kts 12°
2026-05-01 08:17 38.84229 -77.03683 24 ft 0 kts 356°
2026-05-01 08:18 38.84233 -77.03684 24 ft 7 kts 356°
2026-05-01 08:18 38.85607 -77.03828 96 ft 173 kts 355°
2026-05-01 08:19 38.88095 -77.04912 1678 ft 209 kts 321°
2026-05-01 08:19 38.89205 -77.06138 2575 ft 208 kts 321°
2026-05-01 08:19 38.90196 -77.07455 3403 ft 209 kts 306°
2026-05-01 08:19 38.90941 -77.09175 3800 ft 232 kts 301°
2026-05-01 08:20 38.91883 -77.10896 4475 ft 239 kts 320°
2026-05-01 08:20 38.93269 -77.12090 5351 ft 241 kts 328°
2026-05-01 08:20 38.94718 -77.13214 6226 ft 245 kts 327°
2026-05-01 08:20 38.96031 -77.14619 6998 ft 249 kts 309°
2026-05-01 08:21 38.96916 -77.16542 7765 ft 254 kts 290°
2026-05-01 08:21 38.97327 -77.18794 8603 ft 258 kts 282°
2026-05-01 08:21 38.97659 -77.21067 9444 ft 260 kts 281°
2026-05-01 08:21 38.97995 -77.23374 10225 ft 265 kts 280°
2026-05-01 08:22 38.97934 -77.25827 10491 ft 291 kts 255°
2026-05-01 08:22 38.96984 -77.28254 10682 ft 319 kts 237°
2026-05-01 08:22 38.95429 -77.30401 11129 ft 336 kts 223°
2026-05-01 08:22 38.93509 -77.32176 11845 ft 341 kts 219°
2026-05-01 08:23 38.91567 -77.33939 12644 ft 342 kts 220°
2026-05-01 08:23 38.89630 -77.35722 13465 ft 343 kts 220°
2026-05-01 08:23 38.87688 -77.37515 14212 ft 344 kts 220°
2026-05-01 08:23 38.85738 -77.39310 14937 ft 346 kts 221°
2026-05-01 08:24 38.83773 -77.41105 15637 ft 348 kts 221°
2026-05-01 08:24 38.81791 -77.42907 16343 ft 350 kts 221°
2026-05-01 08:24 38.79795 -77.44713 17035 ft 353 kts 221°
2026-05-01 08:24 38.77781 -77.46528 17726 ft 355 kts 222°
2026-05-01 08:25 38.75749 -77.48353 18397 ft 357 kts 222°
2026-05-01 08:25 38.73732 -77.50219 18983 ft 357 kts 226°
2026-05-01 08:25 38.71965 -77.52410 19578 ft 352 kts 233°
2026-05-01 08:25 38.70314 -77.54741 20189 ft 354 kts 233°
2026-05-01 08:26 38.68651 -77.57083 20766 ft 356 kts 233°
2026-05-01 08:26 38.66980 -77.59433 21395 ft 358 kts 233°
2026-05-01 08:26 38.65299 -77.61793 21973 ft 360 kts 233°
2026-05-01 08:26 38.63607 -77.64164 22543 ft 362 kts 233°
2026-05-01 08:27 38.61905 -77.66549 23090 ft 364 kts 233°
2026-05-01 08:27 38.60192 -77.68943 23626 ft 366 kts 233°
2026-05-01 08:27 38.58472 -77.71347 24080 ft 368 kts 233°
2026-05-01 08:27 38.56743 -77.73762 24542 ft 369 kts 233°
2026-05-01 08:28 38.55004 -77.76185 25002 ft 370 kts 233°
2026-05-01 08:28 38.53264 -77.78612 25457 ft 371 kts 234°
2026-05-01 08:28 38.51515 -77.81050 25907 ft 373 kts 234°
2026-05-01 08:28 38.49746 -77.83530 26360 ft 374 kts 235°
2026-05-01 08:29 38.48020 -77.85959 26754 ft 374 kts 235°
2026-05-01 08:29 38.46246 -77.88455 27226 ft 374 kts 236°
2026-05-01 08:29 38.44542 -77.90954 27672 ft 371 kts 240°
2026-05-01 08:29 38.43056 -77.93628 28089 ft 370 kts 242°
2026-05-01 08:30 38.41577 -77.96314 28527 ft 371 kts 242°
2026-05-01 08:30 38.40091 -77.99007 28944 ft 371 kts 243°
2026-05-01 08:30 38.38601 -78.01700 29381 ft 372 kts 243°
2026-05-01 08:30 38.37103 -78.04402 29795 ft 373 kts 243°
2026-05-01 08:31 38.35602 -78.07104 30210 ft 373 kts 243°
2026-05-01 08:31 38.34106 -78.09786 30669 ft 370 kts 243°
2026-05-01 08:31 38.32620 -78.12449 31104 ft 368 kts 244°
2026-05-01 08:31 38.31141 -78.15103 31517 ft 367 kts 244°
2026-05-01 08:32 38.29664 -78.17749 31939 ft 365 kts 244°
2026-05-01 08:32 38.28198 -78.20378 32271 ft 363 kts 245°
2026-05-01 08:32 38.26739 -78.22994 32688 ft 362 kts 245°
2026-05-01 08:32 38.25285 -78.25600 33084 ft 361 kts 245°
2026-05-01 08:33 38.23833 -78.28198 33475 ft 360 kts 245°
2026-05-01 08:33 38.22383 -78.30790 33855 ft 359 kts 246°
2026-05-01 08:33 38.20939 -78.33371 34211 ft 358 kts 246°
2026-05-01 08:33 38.19497 -78.35946 34502 ft 358 kts 246°
2026-05-01 08:34 38.18052 -78.38523 34777 ft 358 kts 246°
2026-05-01 08:34 38.16594 -78.41095 35044 ft 360 kts 245°
2026-05-01 08:34 38.15090 -78.43649 35320 ft 361 kts 244°
2026-05-01 08:34 38.13564 -78.46187 35589 ft 362 kts 244°
2026-05-01 08:35 38.12024 -78.48730 35860 ft 363 kts 244°
2026-05-01 08:35 38.10483 -78.51278 36017 ft 365 kts 244°
2026-05-01 08:35 38.08944 -78.53831 36000 ft 364 kts 244°
2026-05-01 08:36 38.05884 -78.58924 36051 ft 362 kts 244°
2026-05-01 08:36 38.02813 -78.64043 36048 ft 362 kts 244°
2026-05-01 08:37 38.00275 -78.68267 36061 ft 362 kts 244°
2026-05-01 08:37 37.97220 -78.73326 36046 ft 361 kts 244°
2026-05-01 08:38 37.94174 -78.78382 36043 ft 361 kts 244°
2026-05-01 08:38 37.91119 -78.83445 36050 ft 362 kts 244°
2026-05-01 08:39 37.88063 -78.88503 36056 ft 362 kts 244°
2026-05-01 08:39 37.85003 -78.93568 36058 ft 362 kts 244°
2026-05-01 08:40 37.80397 -79.01153 36067 ft 363 kts 244°
2026-05-01 08:40 37.77322 -79.06203 36089 ft 362 kts 244°
2026-05-01 08:41 37.74254 -79.11240 36101 ft 361 kts 244°
2026-05-01 08:41 37.71191 -79.16267 36112 ft 361 kts 244°
2026-05-01 08:42 37.68110 -79.21317 36064 ft 360 kts 245°
2026-05-01 08:42 37.65117 -79.26361 36097 ft 358 kts 245°
2026-05-01 08:43 37.62150 -79.31407 36108 ft 358 kts 245°
2026-05-01 08:43 37.59178 -79.36434 36108 ft 358 kts 245°
2026-05-01 08:44 37.56194 -79.41456 36068 ft 357 kts 245°
2026-05-01 08:44 37.53209 -79.46460 36083 ft 356 kts 245°
2026-05-01 08:45 37.50228 -79.51445 36082 ft 356 kts 245°
2026-05-01 08:45 37.47251 -79.56427 36050 ft 356 kts 245°
2026-05-01 08:46 37.44276 -79.61402 36066 ft 355 kts 245°
2026-05-01 08:46 37.41302 -79.66362 36070 ft 354 kts 245°
2026-05-01 08:47 37.38326 -79.71323 36088 ft 355 kts 245°
2026-05-01 08:47 37.35352 -79.76277 36088 ft 355 kts 245°
2026-05-01 08:48 37.32372 -79.81224 36102 ft 355 kts 245°
2026-05-01 08:48 37.29392 -79.86157 36104 ft 354 kts 245°
2026-05-01 08:49 37.26418 -79.91079 36021 ft 354 kts 246°
2026-05-01 08:49 37.23444 -79.96003 36041 ft 354 kts 245°
2026-05-01 08:50 37.20438 -80.00966 36060 ft 354 kts 245°
2026-05-01 08:50 37.17473 -80.05856 36073 ft 355 kts 245°
2026-05-01 08:51 37.14481 -80.10778 36079 ft 355 kts 245°
2026-05-01 08:51 37.11475 -80.15727 36087 ft 355 kts 245°
2026-05-01 08:52 37.08481 -80.20644 36102 ft 355 kts 245°
2026-05-01 08:52 37.05492 -80.25546 36042 ft 354 kts 245°
2026-05-01 08:53 37.02496 -80.30452 36062 ft 355 kts 245°
2026-05-01 08:53 36.99087 -80.35091 36070 ft 365 kts 240°
2026-05-01 08:54 36.95536 -80.39635 36075 ft 365 kts 240°
2026-05-01 08:54 36.91979 -80.44176 36077 ft 366 kts 239°
2026-05-01 08:55 36.88421 -80.48718 36077 ft 366 kts 239°
2026-05-01 08:55 36.84868 -80.53247 36013 ft 366 kts 240°
2026-05-01 08:56 36.81303 -80.57791 36045 ft 366 kts 239°
2026-05-01 08:56 36.77737 -80.62331 36054 ft 367 kts 239°
2026-05-01 08:57 36.74163 -80.66876 36057 ft 367 kts 239°
2026-05-01 08:57 36.70588 -80.71413 36061 ft 367 kts 239°
2026-05-01 08:58 36.67006 -80.75949 36065 ft 367 kts 239°
2026-05-01 08:58 36.63397 -80.80511 35995 ft 367 kts 239°
2026-05-01 08:59 36.59806 -80.85040 36007 ft 368 kts 239°
2026-05-01 08:59 36.56204 -80.89591 36008 ft 370 kts 239°
2026-05-01 09:00 36.52584 -80.94153 36018 ft 370 kts 239°
2026-05-01 09:00 36.48961 -80.98720 36041 ft 372 kts 239°
2026-05-01 09:01 36.45326 -81.03295 36068 ft 372 kts 239°
2026-05-01 09:01 36.41674 -81.07863 36085 ft 373 kts 239°
2026-05-01 09:02 36.38022 -81.12429 36063 ft 373 kts 238°
2026-05-01 09:02 36.34372 -81.16999 36086 ft 373 kts 238°
2026-05-01 09:03 36.30716 -81.21560 36096 ft 373 kts 238°
2026-05-01 09:03 36.27064 -81.26121 36101 ft 373 kts 238°
2026-05-01 09:04 36.23410 -81.30682 36093 ft 372 kts 238°
2026-05-01 09:04 36.19758 -81.35235 36080 ft 372 kts 238°
2026-05-01 09:05 36.16119 -81.39767 36029 ft 370 kts 238°
2026-05-01 09:05 36.12481 -81.44287 36042 ft 371 kts 238°
2026-05-01 09:06 36.08840 -81.48798 36034 ft 370 kts 238°
2026-05-01 09:06 36.05496 -81.52939 36030 ft 370 kts 238°
2026-05-01 09:07 36.01863 -81.57441 36030 ft 370 kts 238°
2026-05-01 09:07 35.98229 -81.61937 36030 ft 370 kts 238°
2026-05-01 09:08 35.94590 -81.66425 35982 ft 369 kts 238°
2026-05-01 09:08 35.90959 -81.70905 36019 ft 369 kts 238°
2026-05-01 09:09 35.87333 -81.75373 36025 ft 369 kts 238°
2026-05-01 09:09 35.83700 -81.79835 36080 ft 369 kts 238°
2026-05-01 09:10 35.80066 -81.84289 36064 ft 368 kts 238°
2026-05-01 09:10 35.77034 -81.87975 36054 ft 369 kts 237°
2026-05-01 09:11 35.73347 -81.92383 36047 ft 369 kts 237°
2026-05-01 09:11 35.69660 -81.96780 36041 ft 369 kts 237°
2026-05-01 09:12 35.65971 -82.01174 36038 ft 369 kts 237°
2026-05-01 09:12 35.62270 -82.05597 36046 ft 369 kts 237°
2026-05-01 09:13 35.58590 -82.09989 36042 ft 369 kts 237°
2026-05-01 09:13 35.54901 -82.14364 36043 ft 369 kts 237°
2026-05-01 09:14 35.51216 -82.18744 36035 ft 368 kts 237°
2026-05-01 09:14 35.47536 -82.23123 36007 ft 369 kts 237°
2026-05-01 09:15 35.43851 -82.27500 36016 ft 369 kts 237°
2026-05-01 09:15 35.40191 -82.31898 36015 ft 368 kts 238°
2026-05-01 09:16 35.36606 -82.36369 36008 ft 367 kts 239°
2026-05-01 09:17 35.31251 -82.43090 36014 ft 367 kts 238°
2026-05-01 09:17 35.25858 -82.49760 35977 ft 367 kts 238°
2026-05-01 09:18 35.20463 -82.56437 36013 ft 368 kts 238°
2026-05-01 09:19 35.15042 -82.63108 36004 ft 370 kts 238°
2026-05-01 09:20 35.09495 -82.69691 36013 ft 371 kts 237°
2026-05-01 09:21 35.02055 -82.78480 35967 ft 371 kts 237°
2026-05-01 09:21 34.96494 -82.85078 35995 ft 373 kts 237°
2026-05-01 09:22 34.89010 -82.93838 36013 ft 373 kts 237°
2026-05-01 09:23 34.83325 -83.00400 34712 ft 378 kts 236°
2026-05-01 09:24 34.79489 -83.04836 33264 ft 383 kts 236°
2026-05-01 09:24 34.77551 -83.07068 32521 ft 384 kts 235°
2026-05-01 09:24 34.73644 -83.11565 30872 ft 391 kts 234°
2026-05-01 09:25 34.69666 -83.16147 29442 ft 392 kts 233°
2026-05-01 09:25 34.65747 -83.20630 28267 ft 382 kts 232°
2026-05-01 09:26 34.63824 -83.22832 27676 ft 378 kts 232°
2026-05-01 09:26 34.60046 -83.27172 26518 ft 370 kts 232°
2026-05-01 09:26 34.58183 -83.29315 25953 ft 366 kts 232°
2026-05-01 09:27 34.54519 -83.33524 24808 ft 360 kts 232°
2026-05-01 09:27 34.52709 -83.35600 24298 ft 356 kts 232°
2026-05-01 09:27 34.50922 -83.37650 23763 ft 353 kts 231°
2026-05-01 09:28 34.49146 -83.39692 23178 ft 350 kts 231°
2026-05-01 09:28 34.47392 -83.41707 22656 ft 346 kts 231°
2026-05-01 09:28 34.45659 -83.43695 22175 ft 342 kts 231°
2026-05-01 09:28 34.43940 -83.45670 21670 ft 339 kts 231°
2026-05-01 09:29 34.40529 -83.49582 20758 ft 332 kts 230°
2026-05-01 09:29 34.38861 -83.51492 20308 ft 329 kts 230°
2026-05-01 09:30 34.35569 -83.55264 19418 ft 323 kts 230°
2026-05-01 09:30 34.33949 -83.57121 18964 ft 320 kts 229°
2026-05-01 09:30 34.30737 -83.60792 17987 ft 316 kts 229°
2026-05-01 09:31 34.29148 -83.62606 17546 ft 313 kts 230°
2026-05-01 09:31 34.27552 -83.64385 17096 ft 312 kts 228°
2026-05-01 09:31 34.24293 -83.67852 16149 ft 312 kts 226°
2026-05-01 09:32 34.22656 -83.69568 15698 ft 312 kts 226°
2026-05-01 09:32 34.19392 -83.73007 14748 ft 311 kts 225°
2026-05-01 09:32 34.17768 -83.74731 14268 ft 311 kts 225°
2026-05-01 09:33 34.16143 -83.76459 13781 ft 311 kts 224°
2026-05-01 09:33 34.14522 -83.78186 13273 ft 311 kts 224°
2026-05-01 09:33 34.11289 -83.81622 12311 ft 308 kts 224°
2026-05-01 09:34 34.09680 -83.83325 11830 ft 307 kts 225°
2026-05-01 09:34 34.08083 -83.85020 11364 ft 305 kts 225°
2026-05-01 09:34 34.05009 -83.88314 11020 ft 284 kts 225°
2026-05-01 09:35 34.03561 -83.89866 10895 ft 273 kts 226°
2026-05-01 09:35 34.00793 -83.92832 10408 ft 263 kts 226°
2026-05-01 09:35 33.99431 -83.94297 10232 ft 263 kts 226°
2026-05-01 09:36 33.97972 -83.95635 10109 ft 267 kts 214°
2026-05-01 09:36 33.96234 -83.96486 9906 ft 275 kts 199°
2026-05-01 09:36 33.94278 -83.96728 9433 ft 284 kts 182°
2026-05-01 09:36 33.92330 -83.96632 9127 ft 281 kts 182°
2026-05-01 09:37 33.90391 -83.96540 8923 ft 277 kts 182°
2026-05-01 09:37 33.86528 -83.96372 8680 ft 276 kts 182°
2026-05-01 09:37 33.84607 -83.96290 8556 ft 275 kts 182°
2026-05-01 09:38 33.80903 -83.96132 8333 ft 263 kts 182°
2026-05-01 09:38 33.79077 -83.96058 8230 ft 262 kts 183°
2026-05-01 09:38 33.77260 -83.95982 8127 ft 261 kts 184°
2026-05-01 09:39 33.73767 -83.96707 7739 ft 251 kts 207°
2026-05-01 09:39 33.72165 -83.97517 7473 ft 249 kts 207°
2026-05-01 09:39 33.70570 -83.98313 7229 ft 248 kts 207°
2026-05-01 09:40 33.68975 -83.99104 6972 ft 248 kts 207°
2026-05-01 09:40 33.66132 -84.01241 6483 ft 239 kts 233°
2026-05-01 09:40 33.65281 -84.02919 6244 ft 233 kts 250°
2026-05-01 09:41 33.64913 -84.04775 5994 ft 227 kts 267°
2026-05-01 09:41 33.64908 -84.08465 5544 ft 216 kts 270°
2026-05-01 09:41 33.64914 -84.10234 5352 ft 207 kts 270°
2026-05-01 09:42 33.64918 -84.11936 5125 ft 200 kts 270°
2026-05-01 09:42 33.64921 -84.13575 4920 ft 193 kts 270°
2026-05-01 09:42 33.64928 -84.16700 4502 ft 183 kts 270°
2026-05-01 09:43 33.64934 -84.19769 4110 ft 185 kts 271°
2026-05-01 09:43 33.64937 -84.21315 3907 ft 186 kts 271°
2026-05-01 09:43 33.64939 -84.22870 3705 ft 186 kts 271°
2026-05-01 09:44 33.64944 -84.25994 3427 ft 189 kts 271°
2026-05-01 09:44 33.64945 -84.27060 3276 ft 189 kts 272°
2026-05-01 09:44 33.64947 -84.28643 3033 ft 191 kts 271°
2026-05-01 09:45 33.64948 -84.30243 2785 ft 192 kts 271°
2026-05-01 09:45 33.64950 -84.33301 2310 ft 170 kts 271°
2026-05-01 09:45 33.64951 -84.34686 2082 ft 163 kts 272°
2026-05-01 09:46 33.64952 -84.36045 1865 ft 162 kts 273°
2026-05-01 09:46 33.64952 -84.37383 1632 ft 159 kts 272°
2026-05-01 09:46 33.64949 -84.38680 1462 ft 150 kts 274°
2026-05-01 09:46 33.64951 -84.39913 1258 ft 146 kts 272°
2026-05-01 09:47 33.64946 -84.41116 1078 ft 143 kts 273°
2026-05-01 09:47 33.64962 -84.42214 1036 ft 104 kts 270°
2026-05-01 09:47 33.64953 -84.42752 1036 ft 43 kts 269°
2026-05-01 09:47 33.64953 -84.43027 1035 ft 22 kts 270°
2026-05-01 09:48 33.64921 -84.43196 1036 ft 20 kts 252°
2026-05-01 09:48 33.64854 -84.43343 1036 ft 20 kts 255°
2026-05-01 09:48 33.64846 -84.43502 1036 ft 13 kts 268°
2026-05-01 09:48 33.64781 -84.43562 1036 ft 13 kts 208°
2026-05-01 09:49 33.64695 -84.43618 1035 ft 15 kts 208°
2026-05-01 09:49 33.64596 -84.43676 1035 ft 15 kts 179°
2026-05-01 09:49 33.64541 -84.43576 1036 ft 16 kts 98°
2026-05-01 09:49 33.64528 -84.43447 1036 ft 15 kts 136°
2026-05-01 09:50 33.64462 -84.43388 1036 ft 12 kts 95°
2026-05-01 09:50 33.64458 -84.43279 1036 ft 14 kts 89°
2026-05-01 09:50 33.64460 -84.43155 1036 ft 16 kts 89°
2026-05-01 09:50 33.64461 -84.43015 1036 ft 18 kts 89°
2026-05-01 09:51 33.64459 -84.42858 1036 ft 20 kts 91°
2026-05-01 09:51 33.64432 -84.42808 1036 ft 6 kts 165°
2026-05-01 09:51 33.64384 -84.42808 1036 ft 8 kts 181°
2026-05-01 09:51 33.64321 -84.42810 1036 ft 10 kts 181°
2026-05-01 09:52 33.64244 -84.42810 1036 ft 12 kts 179°
2026-05-01 09:52 33.64200 -84.42815 1036 ft 3 kts 214°
2026-05-01 09:52 33.64192 -84.42845 1036 ft 5 kts 262°
2026-05-01 09:52 33.64191 -84.42875 1036 ft 0 kts 270°
2026-05-01 09:53 33.64191 -84.42885 1036 ft 1 kts 270°